Location: Unspecified
(0.0000°N, 0.0000°E)
Time: 02:34:26
(UTC+00:00)

STARLINK-2042 - Pass Details

Date: 24 February 2021
Orbit: 316 x 317 km, 53.1° (Epoch: 23 February)

Event Time Altitude Azimuth Distance (km) Brightness Sun altitude
Exits shadow 05:19:50 - 349° (N) 1,643 5.8 -13.2°
Reaches altitude 10° 05:20:58 10° 359° (N) 1,220 5.3 -12.9°
Maximum altitude 05:23:15 24° 56° (NE) 718 4.8 -12.3°
Drops below altitude 10° 05:25:33 10° 113° (ESE) 1,229 6.8 -11.8°
Sets 05:27:44 0° 128° (SE) 2,065 7.7 -11.2°
